[[{"header":{"parameterUnit":"m.s-1","parameterCategory":2,"la1":30.2991,"la2":30.254,"lo1":-89.0895,"lo2":-89.0444,"dy":0.0017,"dx":0.0017,"nx":28,"ny":28,"refTime":"2024-06-27T09:00:00:Z","depth":"0","parameterNumber":2,"parameterNumberName":"U-component_of_CURRENTS"},"data":[0,0,0,0,0,0,0,0,0,0,0,0,0,0,0,0,0,0,0,0,0,0,0,0,0,0,0,0,0,0,0,0,0,0,0,0,0,0,0,0,0,0,0,0,0,0,0,0,0,0,0,0,0,0,0,0,0,0,0.279,0.2796,0,0.322,0.3223,0.3226,0.3316,0.3315,0.3314,0.3313,0.3228,0.3227,0.3226,0,0,0,0,0,0,0,0,0,0,0,0,0,0.2336,0.234,0.2789,0.2797,0.2804,0.322,0.3223,0.3227,0.3316,0.3315,0.3313,0.3312,0.3228,0.3227,0.3226,0,0,0,0,0,0,0,0,0,0,0,0,0,0.2605,0.2342,0.2788,0.2914,0.2932,0.3219,0.3224,0.3228,0.3317,0.3315,0.3313,0.3311,0.3229,0.3227,0.3226,0.3254,0,0,0.3221,0.322,0,0,0,0,0,0,0,0,0.2589,0.2619,0.2889,0.2907,0.2926,0.3231,0.3035,0.3219,0.3317,0.3148,0.3313,0.331,0.3197,0.3198,0.326,0.325,0.3246,0.3221,0.322,0.3219,0.3219,0,0,0,0,0,0,0,0.257,0.2603,0.2938,0.2897,0.292,0.3052,0.3082,0.3072,0.3151,0.3162,0.3175,0.3258,0.32,0.3262,0.3257,0.3245,0.3221,0.3219,0.3218,0.3218,0.3239,0.3241,0,0,0,0,0,0,0.2548,0.2584,0.2925,0.2953,0.2774,0.3061,0.3095,0.3118,0.3163,0.3179,0.3259,0.3261,0.3265,0.3259,0.3254,0.3244,0.3219,0.3218,0.3217,0.3238,0.324,0.3241,0,0,0,0,0,0,0.2535,0.2571,0.2908,0.2799,0.2854,0.3071,0.3096,0.3128,0.3176,0.3247,0.3247,0.3276,0.3264,0.3256,0.321,0.3242,0.3217,0.3215,0.3236,0.3238,0.324,0.3251,0,0,0,0,0,0,0.2519,0.2562,0.2561,0.2795,0.286,0.305,0.3102,0.3138,0.3242,0.3247,0.3261,0.3254,0.3261,0.3212,0.3208,0.3239,0.3214,0.3234,0.3237,0.324,0.3248,0.3253,0.3257,0,0,0,0,0,0.25,0.2512,0.2556,0.26,0.285,0.3053,0.3093,0.3231,0.3244,0.3262,0.3255,0.3252,0.323,0.321,0.3205,0.3237,0.3233,0.3236,0.324,0.3246,0.3252,0.3257,0,0,0,0,0,0,0.2336,0.2533,0.2583,0.2657,0.283,0.3075,0.3133,0.322,0.3247,0.3229,0.3241,0.3233,0.3217,0.322,0.3199,0.3258,0.3244,0.3247,0.3251,0.3256,0.326,0.3268,0.3213,0,0,0,0,0,0.2299,0.2332,0.2566,0.2622,0.2701,0.2904,0.3001,0.3105,0.3193,0.3208,0.3239,0.3248,0.3242,0.3233,0.324,0.3245,0.3218,0.3276,0.328,0.3283,0.329,0.3276,0.3278,0.3253,0.3253,0.3253,0,0,0.2266,0.2374,0.2401,0.2588,0.2724,0.2856,0.2948,0.31,0.3175,0.3183,0.3235,0.3248,0.3242,0.3263,0.3261,0.3258,0.3269,0.3288,0.329,0.3296,0.3279,0.3281,0.3283,0.3255,0.3255,0.3254,0,0,0.2238,0.2294,0.233,0.2471,0.2689,0.2813,0.2844,0.3079,0.3126,0.3197,0.3219,0.3245,0.3261,0.3293,0.3292,0.332,0.3286,0.3334,0.3364,0.3349,0.335,0.3351,0.328,0.3274,0.3344,0.3344,0.3344,0,0.2197,0.227,0.238,0.2486,0.2604,0.2776,0.2878,0.2971,0.3158,0.3184,0.3195,0.3282,0.3283,0.3304,0.3336,0.333,0.329,0.3336,0.3351,0.3352,0.3353,0.328,0.3273,0.3345,0.3345,0.3345,0.3345,0,0.2232,0.2304,0.2347,0.2501,0.2618,0.2743,0.2914,0.2989,0.3062,0.3176,0.3227,0.3269,0.3319,0.335,0.3345,0.3379,0.3334,0.3346,0.3329,0.3355,0.3277,0.327,0.3347,0.3346,0.3346,0.3346,0,0,0.2143,0.2324,0.2349,0.2412,0.2641,0.2745,0.2831,0.2972,0.3004,0.316,0.3202,0.3277,0.3337,0.3344,0.3376,0.3399,0.3369,0.3382,0.3381,0.3294,0.3282,0.312,0.3096,0.3373,0.3373,0.3373,0.3209,0,0.2152,0.2276,0.238,0.2513,0.2603,0.2755,0.2812,0.2947,0.303,0.3104,0.3192,0.3229,0.3317,0.3325,0.3376,0.3383,0.3358,0.3409,0.3286,0.3281,0.3121,0.3087,0.3083,0.2926,0.3202,0.3201,0.32,0,0.2185,0.2256,0.2349,0.2492,0.2541,0.2618,0.2721,0.2809,0.2933,0.2986,0.309,0.3159,0.3249,0.3284,0.3331,0.3355,0.331,0.3311,0.3304,0.315,0.3108,0.2956,0.2903,0.2911,0.3189,0.319,0.3191,0,0.2075,0.225,0.2281,0.2357,0.2532,0.2552,0.2631,0.276,0.2796,0.2898,0.2916,0.3066,0.3082,0.3141,0.3195,0.3242,0.3189,0.3241,0.3037,0.3023,0.2995,0.2977,0.2925,0.3193,0.3194,0.3194,0.3195,0,0.2069,0.2122,0.2215,0.2258,0.2281,0.2438,0.2458,0.2551,0.2644,0.2673,0.2829,0.2844,0.3043,0.3067,0.3132,0.3056,0.3126,0.3015,0.2971,0.2992,0.2977,0.2963,0.2973,0.3188,0.3189,0.319,0.3192,0,0.1993,0.2056,0.2107,0.2211,0.2233,0.2247,0.2351,0.2373,0.2452,0.248,0.2498,0.265,0.2689,0.2826,0.2878,0.2896,0.2801,0.2805,0.2787,0.2742,0.2572,0.2582,0.2236,0.2196,0.2571,0.2566,0.2562,0,0.1975,0.1978,0.2029,0.2032,0.2074,0.211,0.2137,0.2255,0.2282,0.2354,0.2349,0.2386,0.2439,0.2453,0.2529,0.2548,0.2543,0.245,0.255,0.2526,0.2509,0.2367,0.2355,0.251,0.2506,0.2502,0.25,0,0.194,0.1922,0.1952,0.1932,0.1936,0.1961,0.2004,0.1997,0.2115,0.2134,0.2157,0.2191,0.2201,0.2266,0.2242,0.2266,0.237,0.2367,0.2392,0.2472,0.2271,0.2226,0.2618,0.2468,0.2472,0.2474,0.2475,0.2477,0.1899,0.1881,0.1876,0.1858,0.1855,0.1836,0.1834,0.1886,0.1911,0.1965,0.2002,0.2041,0.2122,0.2138,0.2099,0.2075,0.2043,0.2111,0.2123,0.1976,0.1939,0.2197,0.1968,0.1968,0.1968,0.1968,0.1968,0,0.1864,0.1843,0.1821,0.1791,0.1754,0.1775,0.1773,0.1769,0.1784,0.1855,0.1894,0.198,0.1991,0.2022,0.2026,0.1942,0.1872,0.1897,0.183,0.1838,0.2146,0.2156,0.1898,0.1898,0.1898,0.1898,0.1898,0.1898,0.185,0.1807,0.1782,0.1707,0.1683,0.1633,0.162,0.1621,0.1662,0.1722,0.1784,0.1846,0.1942,0.1983,0.1943,0.1897,0.1813,0.1627,0.1614,0.2026,0.2053,0.2078,0.2094,0.1827,0.1827,0.1299,0.1295,0.1293]},{"header":{"parameterUnit":"m.s-1","parameterCategory":2,"la1":30.2991,"la2":30.254,"lo1":-89.0895,"lo2":-89.0444,"dy":0.0017,"dx":0.0017,"nx":28,"ny":28,"refTime":"2024-06-27T09:00:00:Z","depth":"0","parameterNumber":3,"parameterNumberName":"V-component_of_CURRENTS"},"data":[0,0,0,0,0,0,0,0,0,0,0,0,0,0,0,0,0,0,0,0,0,0,0,0,0,0,0,0,0,0,0,0,0,0,0,0,0,0,0,0,0,0,0,0,0,0,0,0,0,0,0,0,0,0,0,0,0,0,0.0482,0.0481,0,0.042,0.0419,0.0419,0.0399,0.0399,0.0399,0.0399,0.035,0.0349,0.0347,0,0,0,0,0,0,0,0,0,0,0,0,0,0.0441,0.0443,0.0482,0.0481,0.048,0.042,0.0419,0.0418,0.0398,0.0399,0.0399,0.0399,0.0351,0.0349,0.0347,0,0,0,0,0,0,0,0,0,0,0,0,0,0.0427,0.0443,0.0482,0.0463,0.0461,0.042,0.0419,0.0418,0.0398,0.0399,0.0399,0.04,0.0351,0.0349,0.0347,0.0324,0,0,0.0339,0.0338,0,0,0,0,0,0,0,0,0.0428,0.0429,0.0467,0.0464,0.0462,0.0417,0.0387,0.0387,0.0398,0.0422,0.0399,0.04,0.0373,0.0369,0.0357,0.0322,0.0319,0.0339,0.0338,0.0337,0.0336,0,0,0,0,0,0,0,0.0429,0.043,0.0457,0.0466,0.0463,0.0409,0.0409,0.0386,0.0396,0.042,0.0418,0.0411,0.0372,0.0359,0.0355,0.0319,0.0339,0.0337,0.0336,0.0335,0.0325,0.0326,0,0,0,0,0,0,0.0444,0.0433,0.0459,0.0455,0.0446,0.041,0.041,0.0431,0.0396,0.0391,0.0411,0.0411,0.0363,0.0358,0.0354,0.0403,0.0337,0.0335,0.0333,0.0324,0.0325,0.0326,0,0,0,0,0,0,0.0444,0.0449,0.0462,0.044,0.0438,0.0412,0.0435,0.043,0.0429,0.0389,0.0385,0.0417,0.0363,0.0357,0.036,0.0398,0.0334,0.0331,0.0322,0.0324,0.0326,0.0451,0,0,0,0,0,0,0.0444,0.045,0.0455,0.0443,0.044,0.0455,0.0434,0.0428,0.0423,0.0422,0.0393,0.0388,0.0363,0.0364,0.0358,0.0394,0.033,0.0321,0.0323,0.0325,0.0446,0.0457,0.0467,0,0,0,0,0,0.0443,0.046,0.0457,0.0458,0.0456,0.0456,0.045,0.043,0.0423,0.043,0.0418,0.0389,0.0373,0.0363,0.0355,0.0392,0.032,0.0322,0.0325,0.0441,0.0455,0.0467,0,0,0,0,0,0,0.0434,0.0459,0.0455,0.0476,0.0472,0.0453,0.0444,0.0439,0.0432,0.0434,0.0402,0.0397,0.0415,0.038,0.037,0.0393,0.0342,0.0343,0.0433,0.0445,0.0456,0.0464,0.0328,0,0,0,0,0,0.0438,0.0465,0.0469,0.0481,0.0483,0.0466,0.0458,0.0457,0.0451,0.0447,0.0437,0.0421,0.0415,0.0413,0.0397,0.0407,0.0356,0.0424,0.0434,0.0444,0.0445,0.0392,0.0398,0.0335,0.0335,0.0335,0,0,0.0434,0.045,0.0462,0.0481,0.0471,0.0494,0.0463,0.0468,0.0501,0.0443,0.048,0.0457,0.0425,0.0445,0.0449,0.0424,0.044,0.0447,0.0456,0.0451,0.0395,0.0401,0.0406,0.0336,0.0336,0.0336,0,0,0.0446,0.046,0.0486,0.0493,0.0498,0.0506,0.0518,0.0522,0.0536,0.0563,0.0537,0.054,0.0528,0.0522,0.0513,0.0567,0.0497,0.056,0.0624,0.0574,0.0578,0.0582,0.0547,0.0546,0.0567,0.0567,0.0567,0,0.0433,0.0481,0.0486,0.0511,0.0528,0.0525,0.0562,0.0575,0.0587,0.0609,0.0595,0.0589,0.0569,0.0589,0.0615,0.0594,0.0548,0.0584,0.0588,0.059,0.0591,0.0554,0.0551,0.0573,0.0573,0.0572,0.0571,0,0.0469,0.0503,0.0516,0.0567,0.0587,0.0616,0.0648,0.0682,0.0704,0.0715,0.0745,0.0713,0.0707,0.0707,0.0681,0.069,0.0651,0.0608,0.0559,0.0605,0.0563,0.0558,0.0583,0.058,0.0578,0.0577,0,0,0.0465,0.0532,0.0538,0.0577,0.0627,0.0656,0.0724,0.0785,0.083,0.084,0.0881,0.088,0.0851,0.0837,0.0799,0.0763,0.075,0.0697,0.0691,0.0668,0.0641,0.0655,0.065,0.0698,0.0698,0.0697,0.0616,0,0.0493,0.0564,0.0597,0.0677,0.0723,0.076,0.0827,0.0879,0.0913,0.0953,0.0931,0.0942,0.0903,0.0893,0.086,0.0774,0.0738,0.0776,0.0593,0.0588,0.0599,0.0646,0.0662,0.0593,0.061,0.0609,0.0609,0,0.0526,0.0578,0.0658,0.076,0.0783,0.0835,0.0944,0.0997,0.1048,0.1065,0.1069,0.1037,0.1017,0.0954,0.0845,0.0866,0.0767,0.0691,0.0685,0.0647,0.0593,0.0543,0.0583,0.0566,0.06,0.0601,0.0601,0,0.0541,0.0629,0.0706,0.0734,0.0838,0.0894,0.0956,0.103,0.1082,0.1117,0.113,0.1106,0.107,0.0966,0.0848,0.083,0.0705,0.0654,0.0575,0.0574,0.0527,0.0525,0.0532,0.0555,0.0555,0.0555,0.0555,0,0.0577,0.0636,0.0718,0.0759,0.086,0.092,0.1021,0.1075,0.1135,0.1185,0.1171,0.1173,0.1061,0.0988,0.0871,0.0734,0.0723,0.0597,0.0557,0.0575,0.0578,0.0509,0.0485,0.0552,0.0553,0.0553,0.0554,0,0.0586,0.0636,0.0721,0.0829,0.0867,0.0936,0.1054,0.112,0.1166,0.122,0.1225,0.1209,0.1115,0.1011,0.0839,0.0757,0.0615,0.0566,0.0615,0.0584,0.0503,0.0485,0.0429,0.0447,0.0468,0.0468,0.0468,0,0.0601,0.0643,0.0752,0.0805,0.0856,0.096,0.1036,0.1124,0.1188,0.1236,0.1258,0.1194,0.1167,0.097,0.0803,0.0633,0.059,0.0542,0.0514,0.0522,0.047,0.0473,0.0493,0.05,0.05,0.05,0.05,0,0.0625,0.0653,0.0724,0.0821,0.0905,0.1004,0.1112,0.1172,0.1265,0.131,0.1342,0.1319,0.1132,0.0997,0.0791,0.0654,0.0571,0.0539,0.0518,0.0487,0.0514,0.0505,0.0543,0.0502,0.0502,0.0501,0.0501,0.0501,0.0633,0.0675,0.0755,0.0854,0.094,0.1047,0.1144,0.1247,0.1351,0.1461,0.1416,0.1447,0.1247,0.0962,0.0773,0.0539,0.053,0.0479,0.0451,0.0451,0.0493,0.056,0.0496,0.0495,0.0495,0.0495,0.0495,0,0.0649,0.0704,0.0787,0.0905,0.0995,0.1044,0.1198,0.1305,0.1436,0.155,0.16,0.1597,0.1322,0.106,0.0707,0.0524,0.0461,0.0438,0.0439,0.0459,0.0482,0.0512,0.0484,0.0484,0.0484,0.0484,0.0484,0.0484,0.066,0.0734,0.078,0.0928,0.1013,0.1153,0.1249,0.1401,0.1539,0.1753,0.1873,0.1936,0.181,0.1066,0.0643,0.0513,0.0456,0.0387,0.0387,0.039,0.0392,0.0394,0.0419,0.0372,0.0372,0.0403,0.0403,0.0403]}],[{"header":{"parameterUnit":"m.s-1","parameterCategory":2,"la1":30.2991,"la2":30.254,"lo1":-89.0895,"lo2":-89.0444,"dy":0.0017,"dx":0.0017,"nx":28,"ny":28,"refTime":"2024-06-27T09:00:00:Z","depth":"2","parameterNumber":2,"parameterNumberName":"U-component_of_CURRENTS"},"data":[0,0,0,0,0,0,0,0,0,0,0,0,0,0,0,0,0,0,0,0,0,0,0,0,0,0,0,0,0,0,0,0,0,0,0,0,0,0,0,0,0,0,0,0,0,0,0,0,0,0,0,0,0,0,0,0,0,0,0.2405,0.2409,0,0.276,0.2764,0.2768,0.2916,0.2916,0.2915,0.2915,0.2779,0.2776,0.2772,0,0,0,0,0,0,0,0,0,0,0,0,0,0.2107,0.211,0.2404,0.2409,0.2414,0.276,0.2764,0.2769,0.2916,0.2916,0.2915,0.2915,0.278,0.2776,0.2772,0,0,0,0,0,0,0,0,0,0,0,0,0,0.2323,0.2111,0.2403,0.2532,0.2547,0.2759,0.2764,0.277,0.2916,0.2916,0.2915,0.2915,0.2781,0.2776,0.2772,0.2753,0,0,0.2757,0.2754,0,0,0,0,0,0,0,0,0.231,0.2333,0.2508,0.2523,0.2541,0.2797,0.2611,0.2741,0.2916,0.2772,0.2915,0.2914,0.2742,0.274,0.281,0.2746,0.274,0.2756,0.2753,0.2751,0.275,0,0,0,0,0,0,0,0.2294,0.232,0.2541,0.2513,0.2534,0.266,0.2687,0.2639,0.2743,0.2785,0.2797,0.2843,0.2747,0.2815,0.2807,0.2738,0.2756,0.2752,0.2749,0.2747,0.2807,0.2812,0,0,0,0,0,0,0.2246,0.2304,0.253,0.2553,0.2426,0.2664,0.2695,0.2712,0.2755,0.2767,0.2843,0.2849,0.2824,0.2812,0.2801,0.2832,0.2751,0.2747,0.2744,0.2803,0.2808,0.2813,0,0,0,0,0,0,0.2238,0.2261,0.2516,0.2442,0.2483,0.2669,0.2688,0.2719,0.2821,0.2806,0.2807,0.2915,0.2823,0.2808,0.274,0.2824,0.2744,0.274,0.2798,0.2805,0.2811,0.2856,0,0,0,0,0,0,0.2227,0.2255,0.2259,0.2437,0.2486,0.2654,0.269,0.2727,0.2849,0.2861,0.2866,0.2854,0.2821,0.2748,0.2735,0.2816,0.2736,0.2792,0.2801,0.2809,0.2849,0.2864,0.2876,0,0,0,0,0,0.2215,0.2227,0.2256,0.2286,0.248,0.2656,0.2694,0.2822,0.2853,0.2908,0.287,0.2855,0.2799,0.2742,0.2728,0.281,0.2788,0.2798,0.2808,0.2843,0.2861,0.2876,0,0,0,0,0,0,0.212,0.2249,0.2284,0.2339,0.2488,0.2683,0.274,0.284,0.2878,0.2858,0.2836,0.2819,0.2805,0.2806,0.2747,0.2871,0.2823,0.283,0.2855,0.2872,0.2885,0.2869,0.2732,0,0,0,0,0,0.2092,0.2117,0.2289,0.2334,0.2393,0.257,0.2659,0.2759,0.2824,0.2851,0.2875,0.2876,0.2844,0.2845,0.2822,0.2846,0.2795,0.2924,0.2938,0.2949,0.2937,0.2919,0.2927,0.2847,0.2847,0.2847,0,0,0.207,0.2143,0.2162,0.2313,0.2421,0.254,0.2621,0.2761,0.2848,0.2809,0.2894,0.2884,0.285,0.2879,0.2887,0.2885,0.2947,0.2962,0.297,0.2951,0.293,0.2936,0.2942,0.2854,0.2853,0.2851,0,0,0.2057,0.2095,0.2127,0.2258,0.2429,0.2527,0.2571,0.2786,0.2852,0.2911,0.2917,0.2941,0.2945,0.297,0.2957,0.3036,0.299,0.3097,0.317,0.3154,0.3157,0.316,0.3086,0.3082,0.314,0.314,0.314,0,0.2034,0.2093,0.2176,0.228,0.2378,0.2517,0.2619,0.2713,0.2892,0.2925,0.2925,0.3,0.2981,0.3008,0.3067,0.3061,0.3025,0.3089,0.3162,0.3164,0.3166,0.309,0.3084,0.3143,0.3143,0.3143,0.3142,0,0.2078,0.2148,0.2185,0.2322,0.2435,0.2548,0.269,0.2787,0.2856,0.2966,0.3023,0.3027,0.3076,0.3135,0.31,0.3179,0.3135,0.3139,0.3094,0.3175,0.3092,0.3085,0.3148,0.3147,0.3146,0.3145,0,0,0.1996,0.2168,0.2193,0.2255,0.2471,0.2561,0.2661,0.2792,0.2832,0.2992,0.3046,0.3101,0.316,0.3157,0.3197,0.3236,0.322,0.3222,0.3219,0.3101,0.3143,0.2977,0.2952,0.3237,0.3237,0.3237,0.3068,0,0.2014,0.2141,0.2245,0.2381,0.2461,0.2604,0.2674,0.2809,0.2882,0.2965,0.3035,0.3066,0.3151,0.3161,0.3226,0.3217,0.3211,0.3262,0.3123,0.3118,0.2922,0.2943,0.282,0.2648,0.3061,0.306,0.3059,0,0.2054,0.2123,0.2224,0.237,0.2413,0.2496,0.2598,0.2693,0.2819,0.2867,0.2974,0.3028,0.3131,0.3147,0.3197,0.3231,0.3181,0.3174,0.3167,0.2985,0.294,0.2647,0.262,0.3046,0.3047,0.3048,0.3049,0,0.1945,0.2123,0.2157,0.2238,0.2413,0.2443,0.2518,0.2657,0.2694,0.2798,0.2807,0.2966,0.2967,0.3028,0.3069,0.312,0.3056,0.3103,0.289,0.2876,0.2727,0.2699,0.305,0.305,0.3051,0.3051,0.3052,0,0.1943,0.1999,0.2091,0.2137,0.2163,0.2328,0.2354,0.2449,0.2543,0.2572,0.2733,0.274,0.2933,0.2953,0.3013,0.2925,0.2998,0.2869,0.2823,0.274,0.2717,0.3042,0.3043,0.3045,0.3046,0.3048,0.3049,0,0.1872,0.1935,0.1987,0.2094,0.2117,0.2136,0.2244,0.2267,0.235,0.2375,0.2392,0.254,0.2572,0.2708,0.2749,0.2764,0.2744,0.266,0.2524,0.2465,0.2586,0.2593,0.2425,0.2418,0.2412,0.2407,0.2402,0,0.1855,0.186,0.1912,0.1915,0.1959,0.2,0.2029,0.2148,0.2176,0.2243,0.2232,0.2263,0.231,0.2311,0.2358,0.2366,0.249,0.2172,0.225,0.255,0.2523,0.254,0.2554,0.2069,0.2062,0.2057,0.2052,0,0.1823,0.1807,0.1837,0.1819,0.1824,0.1847,0.1892,0.1883,0.2,0.2014,0.2027,0.2057,0.2033,0.2017,0.1979,0.1987,0.22,0.2051,0.2393,0.2243,0.22,0.2178,0.2207,0.2004,0.2008,0.2012,0.2015,0.2017,0.1784,0.1768,0.1764,0.1748,0.1744,0.1723,0.172,0.1761,0.1779,0.1803,0.184,0.1817,0.1823,0.1731,0.1668,0.163,0.1793,0.1776,0.18,0.1828,0.1814,0.1762,0.1478,0.1479,0.1481,0.1482,0.1484,0,0.1748,0.1732,0.1712,0.1682,0.1641,0.1666,0.1658,0.1631,0.1629,0.1645,0.1656,0.1494,0.1441,0.1439,0.1311,0.1275,0.1349,0.1226,0.1356,0.1403,0.1446,0.1421,0.0976,0.0974,0.0972,0.097,0,0,0.1733,0.1691,0.1667,0.1591,0.1572,0.1509,0.1494,0.145,0.144,0.1389,0.1362,0.1431,0.1429,0.1202,0.1156,0.105,0.1229,0.1007,0.1424,0.163,0.1671,0.1774,0.1788,0,0,0,0,0]},{"header":{"parameterUnit":"m.s-1","parameterCategory":2,"la1":30.2991,"la2":30.254,"lo1":-89.0895,"lo2":-89.0444,"dy":0.0017,"dx":0.0017,"nx":28,"ny":28,"refTime":"2024-06-27T09:00:00:Z","depth":"2","parameterNumber":3,"parameterNumberName":"V-component_of_CURRENTS"},"data":[0,0,0,0,0,0,0,0,0,0,0,0,0,0,0,0,0,0,0,0,0,0,0,0,0,0,0,0,0,0,0,0,0,0,0,0,0,0,0,0,0,0,0,0,0,0,0,0,0,0,0,0,0,0,0,0,0,0,0.0391,0.039,0,0.0309,0.0309,0.0308,0.0309,0.031,0.031,0.0311,0.027,0.0269,0.0267,0,0,0,0,0,0,0,0,0,0,0,0,0,0.0389,0.0391,0.0391,0.039,0.0388,0.0309,0.0309,0.0308,0.0309,0.031,0.031,0.0311,0.0271,0.0269,0.0267,0,0,0,0,0,0,0,0,0,0,0,0,0,0.0362,0.0391,0.0391,0.0376,0.0373,0.031,0.0309,0.0308,0.0309,0.031,0.0311,0.0311,0.0271,0.0269,0.0266,0.0232,0,0,0.0259,0.0258,0,0,0,0,0,0,0,0,0.0364,0.0363,0.0379,0.0376,0.0373,0.0316,0.0293,0.0283,0.0308,0.0338,0.0311,0.0312,0.0285,0.0282,0.0271,0.023,0.0228,0.0259,0.0257,0.0256,0.0255,0,0,0,0,0,0,0,0.0366,0.0365,0.0364,0.0378,0.0374,0.0318,0.0317,0.029,0.0312,0.0336,0.0334,0.0317,0.0285,0.0273,0.027,0.0227,0.0259,0.0256,0.0255,0.0254,0.0244,0.0245,0,0,0,0,0,0,0.0374,0.0368,0.0366,0.0361,0.0365,0.0317,0.0317,0.0337,0.0311,0.0306,0.0316,0.0317,0.0277,0.0273,0.0268,0.0327,0.0256,0.0254,0.0252,0.0242,0.0244,0.0245,0,0,0,0,0,0,0.0375,0.0376,0.0369,0.0356,0.0351,0.0317,0.034,0.0335,0.0343,0.0295,0.0293,0.0331,0.0277,0.0272,0.0275,0.0321,0.0252,0.025,0.0241,0.0243,0.0245,0.0379,0,0,0,0,0,0,0.0376,0.0378,0.0384,0.0358,0.0352,0.0355,0.0338,0.0333,0.0327,0.0329,0.0306,0.0302,0.0278,0.0279,0.0273,0.0317,0.0248,0.0239,0.0242,0.0244,0.0373,0.0385,0.0396,0,0,0,0,0,0.0377,0.0393,0.0386,0.0384,0.0367,0.0356,0.0349,0.0328,0.0328,0.0339,0.0329,0.0304,0.029,0.0278,0.027,0.0315,0.0238,0.0241,0.0244,0.0368,0.0383,0.0395,0,0,0,0,0,0,0.0385,0.0393,0.0386,0.0401,0.0386,0.0355,0.0345,0.034,0.0338,0.0344,0.0313,0.0309,0.0328,0.0296,0.0284,0.0317,0.0262,0.0263,0.0359,0.0372,0.0383,0.0391,0.0246,0,0,0,0,0,0.039,0.0414,0.04,0.0408,0.0404,0.0379,0.0366,0.0364,0.0355,0.0356,0.0351,0.0338,0.0327,0.0332,0.0312,0.0327,0.0273,0.035,0.0361,0.0371,0.0371,0.0316,0.0323,0.0254,0.0254,0.0254,0,0,0.0388,0.0395,0.0404,0.0411,0.0394,0.0412,0.0377,0.0377,0.041,0.035,0.0401,0.0373,0.0336,0.0361,0.0367,0.0346,0.0368,0.0375,0.0384,0.0378,0.032,0.0326,0.0332,0.0256,0.0256,0.0256,0,0,0.0402,0.0412,0.0436,0.0438,0.0428,0.043,0.0441,0.044,0.0458,0.0484,0.0457,0.046,0.045,0.0444,0.0433,0.0489,0.0422,0.0488,0.0563,0.0512,0.0517,0.052,0.0484,0.0484,0.0503,0.0504,0.0504,0,0.0392,0.0437,0.0434,0.0456,0.0468,0.0454,0.0488,0.0502,0.0511,0.0534,0.0521,0.0513,0.0491,0.0512,0.0541,0.0518,0.0474,0.052,0.0527,0.0529,0.053,0.0492,0.049,0.0511,0.051,0.0509,0.0508,0,0.0429,0.0461,0.0473,0.0521,0.0536,0.0559,0.0584,0.0622,0.0644,0.0652,0.0682,0.0644,0.0639,0.0641,0.0611,0.0625,0.0586,0.0541,0.0495,0.0546,0.0502,0.0497,0.052,0.0518,0.0516,0.0514,0,0,0.0426,0.049,0.0496,0.0534,0.0579,0.0602,0.0674,0.073,0.0776,0.0787,0.0832,0.0824,0.0794,0.0777,0.0739,0.0707,0.0695,0.0642,0.0636,0.0612,0.0587,0.0602,0.0597,0.0646,0.0645,0.0645,0.0562,0,0.0455,0.0525,0.0557,0.0637,0.068,0.0714,0.0783,0.0834,0.0866,0.0908,0.0881,0.0889,0.0849,0.0839,0.0809,0.0716,0.0683,0.0722,0.0535,0.053,0.0541,0.0592,0.0572,0.0499,0.0556,0.0555,0.0554,0,0.0489,0.0539,0.0619,0.0721,0.0743,0.0795,0.0904,0.0957,0.1009,0.1025,0.1029,0.0993,0.0975,0.0907,0.0796,0.0819,0.0718,0.0639,0.0632,0.0591,0.0535,0.0452,0.0487,0.0545,0.0546,0.0546,0.0547,0,0.0504,0.0592,0.0668,0.0696,0.0799,0.0856,0.0918,0.0993,0.1044,0.108,0.1092,0.1069,0.103,0.0924,0.0801,0.0783,0.0655,0.0602,0.052,0.0519,0.0438,0.0432,0.0499,0.0499,0.0499,0.0499,0.05,0,0.054,0.0599,0.068,0.072,0.0821,0.0882,0.0984,0.1038,0.1099,0.1147,0.1135,0.1134,0.1022,0.0947,0.0827,0.0685,0.0675,0.0542,0.0502,0.0489,0.0489,0.0466,0.0463,0.0496,0.0497,0.0498,0.0498,0,0.055,0.0599,0.0683,0.079,0.0828,0.0897,0.1015,0.108,0.1127,0.1179,0.1184,0.1167,0.107,0.0968,0.0792,0.0709,0.0574,0.0514,0.0528,0.0492,0.0462,0.0467,0.0411,0.0411,0.0411,0.0411,0.0411,0,0.0564,0.0605,0.0714,0.0765,0.0816,0.092,0.0995,0.1084,0.1146,0.1191,0.121,0.1145,0.1114,0.0916,0.0745,0.0572,0.0548,0.0451,0.0415,0.0488,0.0454,0.0459,0.0464,0.0358,0.0357,0.0357,0.0356,0,0.0587,0.0615,0.0685,0.0781,0.0863,0.096,0.1067,0.1124,0.1216,0.1257,0.1284,0.1259,0.1066,0.0899,0.0693,0.0563,0.0493,0.0437,0.0488,0.0403,0.0437,0.0404,0.041,0.0353,0.0353,0.0354,0.0354,0.0354,0.0595,0.0636,0.0714,0.0812,0.0897,0.1,0.1095,0.119,0.1289,0.1373,0.1333,0.1302,0.1103,0.0826,0.0618,0.0415,0.0429,0.0359,0.036,0.0361,0.0391,0.0424,0.0343,0.0344,0.0344,0.0344,0.0344,0,0.0608,0.0664,0.0746,0.0862,0.0948,0.0999,0.1147,0.1237,0.1355,0.1411,0.1441,0.1234,0.1035,0.0809,0.0496,0.0324,0.0283,0.0266,0.0253,0.0259,0.0263,0.0287,0.0212,0.0211,0.021,0.0209,0,0,0.0618,0.069,0.0736,0.0879,0.0965,0.1098,0.1191,0.131,0.1395,0.1463,0.1455,0.1406,0.1118,0.0869,0.0603,0.0417,0.0382,0.037,0.0497,0.0519,0.0526,0.0336,0.0382,0,0,0,0,0]}],[{"header":{"parameterUnit":"m.s-1","parameterCategory":2,"la1":30.2991,"la2":30.254,"lo1":-89.0895,"lo2":-89.0444,"dy":0.0017,"dx":0.0017,"nx":28,"ny":28,"refTime":"2024-06-27T09:00:00:Z","depth":"4","parameterNumber":2,"parameterNumberName":"U-component_of_CURRENTS"},"data":[0,0,0,0,0,0,0,0,0,0,0,0,0,0,0,0,0,0,0,0,0,0,0,0,0,0,0,0,0,0,0,0,0,0,0,0,0,0,0,0,0,0,0,0,0,0,0,0,0,0,0,0,0,0,0,0,0,0,0.023,0.0222,0,-0.0292,-0.0296,-0.03,-0.0445,-0.0444,-0.0443,-0.0442,-0.0279,-0.0276,-0.0273,0,0,0,0,0,0,0,0,0,0,0,0,0,0.0874,0.0866,0.0231,0.0222,0.0213,-0.0291,-0.0296,-0.0301,-0.0445,-0.0444,-0.0443,-0.0441,-0.0281,-0.0277,-0.0273,0,0,0,0,0,0,0,0,0,0,0,0,0,0.0518,0.0863,0.0232,0.0065,0.0044,-0.029,-0.0296,-0.0303,-0.0445,-0.0444,-0.0442,-0.0441,-0.0282,-0.0277,-0.0272,-0.0272,0,0,-0.0257,-0.0254,0,0,0,0,0,0,0,0,0.0539,0.0498,0.0098,0.0076,0.0051,-0.032,-0.0012,-0.0266,-0.0446,-0.0237,-0.0442,-0.044,-0.0244,-0.0242,-0.0324,-0.0265,-0.0258,-0.0256,-0.0253,-0.0251,-0.025,0,0,0,0,0,0,0,0.0564,0.0517,0.0045,0.0089,0.006,-0.0064,-0.0107,-0.0063,-0.0214,-0.0256,-0.0273,-0.0365,-0.0249,-0.0329,-0.0319,-0.0255,-0.0256,-0.0252,-0.0249,-0.0247,-0.0195,-0.0196,0,0,0,0,0,0,0.0595,0.0541,0.0061,0.0027,0.028,-0.0076,-0.0125,-0.0185,-0.023,-0.0248,-0.0365,-0.037,-0.0339,-0.0325,-0.0313,-0.017,-0.0251,-0.0246,-0.0243,-0.0193,-0.0195,-0.0197,0,0,0,0,0,0,0.0611,0.0559,0.0082,0.0254,0.0183,-0.009,-0.0156,-0.0197,-0.0264,-0.0326,-0.0324,-0.0391,-0.0337,-0.032,-0.0171,-0.0168,-0.0244,-0.0239,-0.0191,-0.0194,-0.0196,0.0029,0,0,0,0,0,0,0.0633,0.0569,0.0579,0.0257,0.0173,-0.0115,-0.0162,-0.0209,-0.0335,-0.0344,-0.0346,-0.0333,-0.0334,-0.0178,-0.0166,-0.0162,-0.0236,-0.0189,-0.0192,-0.0195,0.0024,0.0034,0.0044,0,0,0,0,0,0.0659,0.0622,0.0584,0.0525,0.0183,-0.012,-0.0171,-0.0346,-0.0336,-0.0388,-0.0293,-0.0332,-0.0197,-0.0168,-0.0156,-0.0152,-0.0188,-0.0191,-0.0195,0.0019,0.0032,0.0044,0,0,0,0,0,0,0.0868,0.0591,0.0545,0.0422,0.0182,-0.0151,-0.022,-0.0328,-0.0322,-0.0262,-0.0259,-0.0238,-0.007,-0.0182,-0.0154,-0.0171,-0.0238,-0.0239,-0.0082,-0.0069,-0.0059,0.0088,-0.0231,0,0,0,0,0,0.0928,0.0859,0.0545,0.0449,0.0349,0.0091,-0.0033,-0.0165,-0.0249,-0.0256,-0.0245,-0.0217,-0.0099,-0.0127,-0.0033,-0.0055,-0.005,-0.009,-0.0079,-0.0069,0.0045,0.0113,0.0146,-0.0209,-0.0209,-0.0209,0,0,0.0976,0.0813,0.0773,0.0494,0.0321,0.0155,0.0027,-0.0171,-0.0233,-0.0215,-0.0179,-0.0073,-0.0053,0.0012,0.004,-0.009,-0.0001,-0.0074,-0.0063,0.0048,0.0114,0.015,0.0183,-0.0211,-0.0211,-0.021,0,0,0.0985,0.0904,0.0841,0.0633,0.0356,0.0219,0.0177,-0.0103,-0.0126,-0.0106,-0.0036,0.0104,0.0095,0.0145,0.0172,0.0265,0.0174,0.0164,0.0219,0.0281,0.0316,0.0346,0.029,0.0314,0.0021,0.0021,0.0021,0,0.106,0.0909,0.0764,0.0593,0.0457,0.027,0.0145,0.0064,-0.0109,-0.0054,-0.0054,0.0133,0.0194,0.0321,0.0375,0.0314,0.0276,0.0197,0.0312,0.0343,0.0371,0.0307,0.0331,0.0031,0.003,0.0029,0.0028,0,0.097,0.0837,0.0758,0.0556,0.0437,0.0254,0.0115,0.0104,0.0121,0.005,0.0244,0.0344,0.0423,0.0409,0.0475,0.0621,0.0509,0.0454,0.0324,0.0424,0.0342,0.0364,0.0046,0.0043,0.004,0.0037,0,0,0.1088,0.0778,0.0739,0.0669,0.0388,0.0292,0.0291,0.0234,0.0299,0.0264,0.0342,0.0604,0.0642,0.0682,0.0686,0.0729,0.0918,0.0665,0.0663,0.0684,0.0968,0.0803,0.0808,0.0871,0.0878,0.0884,0.0796,0,0.1038,0.0837,0.0685,0.0539,0.0432,0.0318,0.033,0.0308,0.0353,0.039,0.0501,0.0637,0.0708,0.0787,0.0867,0.0939,0.1002,0.0944,0.0806,0.0802,0.0711,0.0841,0.0907,0.0812,0.0816,0.082,0.0823,0,0.0952,0.0847,0.0732,0.0589,0.0547,0.0502,0.0596,0.054,0.0574,0.0642,0.0748,0.0767,0.09,0.0943,0.1098,0.1033,0.1108,0.113,0.1121,0.095,0.0686,0.0704,0.0862,0.0859,0.0856,0.0853,0.0851,0,0.1133,0.0868,0.0858,0.0751,0.0585,0.0654,0.0634,0.0671,0.0698,0.0796,0.0836,0.0931,0.1001,0.1094,0.1071,0.1135,0.1144,0.1179,0.1097,0.1074,0.1153,0.1122,0.1428,0.1428,0.1429,0.1429,0.1429,0,0.1077,0.1021,0.0966,0.0905,0.0951,0.0831,0.0913,0.0936,0.0956,0.0979,0.0978,0.1029,0.1088,0.0998,0.1039,0.1028,0.1085,0.1218,0.1106,0.1215,0.1194,0.116,0.113,0.1425,0.1426,0.1427,0.1427,0,0.114,0.1072,0.1026,0.0988,0.0993,0.1044,0.1003,0.1045,0.1098,0.1118,0.1148,0.1142,0.1122,0.0967,0.1043,0.0995,0.0968,0.0965,0.0948,0.0817,0.0894,0.0876,0.1011,0.1005,0.1001,0.0997,0.0994,0,0.112,0.1118,0.1126,0.1134,0.11,0.114,0.1131,0.1153,0.1171,0.1178,0.1173,0.1159,0.1128,0.0935,0.092,0.0801,0.0867,0.0762,0.1113,0.1008,0.0884,0.0871,0.0859,0.0988,0.0986,0.0985,0.0984,0,0.1077,0.1135,0.1119,0.1156,0.1189,0.1158,0.1167,0.1198,0.119,0.1249,0.1209,0.1132,0.1064,0.0991,0.0783,0.0759,0.0764,0.0723,0.0742,0.1074,0.098,0.0859,0.0851,0.0969,0.0971,0.0973,0.0974,0,0.107,0.1076,0.1112,0.112,0.1151,0.1137,0.1148,0.1132,0.1144,0.1164,0.1165,0.1085,0.1099,0.0971,0.0785,0.0669,0.0871,0.0888,0.0904,0.092,0.0928,0.0798,0.0716,0,0,0,0,0,0.1027,0.1024,0.1041,0.1044,0.1077,0.1087,0.1116,0.1128,0.116,0.1126,0.1148,0.1069,0.0956,0.0919,0.0821,0.0846,0.0851,0.073,0.0877,0.0886,0.0903,0.0918,0,0,0,0,0,0,0.0998,0.102,0.1015,0.0972,0.0964,0.0974,0.0995,0.1024,0.1,0.1049,0.0984,0.1025,0.091,0.0996,0.0808,0.0792,0.0868,0.0705,0.0702,0.0876,0.0892,0.0906,0.0927,0,0,0,0,0]},{"header":{"parameterUnit":"m.s-1","parameterCategory":2,"la1":30.2991,"la2":30.254,"lo1":-89.0895,"lo2":-89.0444,"dy":0.0017,"dx":0.0017,"nx":28,"ny":28,"refTime":"2024-06-27T09:00:00:Z","depth":"4","parameterNumber":3,"parameterNumberName":"V-component_of_CURRENTS"},"data":[0,0,0,0,0,0,0,0,0,0,0,0,0,0,0,0,0,0,0,0,0,0,0,0,0,0,0,0,0,0,0,0,0,0,0,0,0,0,0,0,0,0,0,0,0,0,0,0,0,0,0,0,0,0,0,0,0,0,0.0429,0.0431,0,0.0547,0.0548,0.0548,0.0654,0.0656,0.0659,0.0661,0.047,0.0463,0.0456,0,0,0,0,0,0,0,0,0,0,0,0,0,0.028,0.0281,0.0429,0.0431,0.0434,0.0547,0.0548,0.0548,0.0653,0.0656,0.0659,0.0662,0.0473,0.0464,0.0455,0,0,0,0,0,0,0,0,0,0,0,0,0,0.0352,0.0281,0.0428,0.0511,0.052,0.0547,0.0548,0.0548,0.0653,0.0656,0.066,0.0664,0.0476,0.0465,0.0454,0.0309,0,0,0.042,0.0415,0,0,0,0,0,0,0,0,0.0348,0.0356,0.0496,0.0505,0.0516,0.0602,0.0426,0.0458,0.0652,0.0587,0.0661,0.0666,0.0492,0.048,0.0478,0.03,0.0292,0.0419,0.0412,0.0407,0.0404,0,0,0,0,0,0,0,0.0343,0.0352,0.0461,0.0499,0.0511,0.0538,0.0551,0.0433,0.05,0.0593,0.0605,0.0639,0.0494,0.0489,0.0473,0.0289,0.0419,0.0409,0.0402,0.0398,0.0096,0.0095,0,0,0,0,0,0,0.0353,0.0346,0.0458,0.0466,0.0456,0.0539,0.0553,0.0559,0.0509,0.0511,0.0636,0.0644,0.0506,0.0486,0.0467,0.0371,0.0407,0.0397,0.039,0.0098,0.0096,0.0095,0,0,0,0,0,0,0.0349,0.036,0.0453,0.0422,0.0438,0.0539,0.0544,0.056,0.0618,0.0547,0.0542,0.0689,0.0508,0.0482,0.0374,0.0361,0.0392,0.0381,0.0099,0.0097,0.0095,0.0127,0,0,0,0,0,0,0.0343,0.0357,0.0357,0.0422,0.0441,0.0494,0.0543,0.056,0.0637,0.065,0.0587,0.0572,0.0509,0.0391,0.0363,0.0347,0.0373,0.0101,0.0098,0.0096,0.0127,0.0126,0.0125,0,0,0,0,0,0.0337,0.0338,0.0355,0.037,0.0438,0.0496,0.0506,0.0581,0.0636,0.0649,0.0593,0.0577,0.0358,0.0379,0.0347,0.0327,0.0102,0.0099,0.0096,0.0128,0.0126,0.0125,0,0,0,0,0,0,0.0289,0.0352,0.0372,0.0395,0.0451,0.052,0.0541,0.0605,0.0579,0.0597,0.0527,0.0502,0.0411,0.0355,0.0381,0.0237,0.0239,0.0229,0.0274,0.0271,0.027,0.0355,0.0364,0,0,0,0,0,0.0271,0.0285,0.0353,0.0377,0.0395,0.0471,0.0508,0.0578,0.058,0.0583,0.0547,0.0476,0.036,0.0312,0.022,0.0112,0.0107,0.009,0.0088,0.0088,0.0135,0.0069,0.0067,0.0085,0.0085,0.0085,0,0,0.0271,0.0303,0.0318,0.0367,0.0404,0.0445,0.0499,0.0581,0.062,0.0547,0.0552,0.0465,0.0331,0.0227,0.0183,0.0185,0.0081,0.0084,0.0084,0.0133,0.0066,0.0064,0.0063,0.0083,0.0083,0.0084,0,0,0.0279,0.0288,0.0302,0.034,0.0423,0.0461,0.0498,0.0586,0.0616,0.0596,0.0543,0.0456,0.0328,0.0228,0.0149,0.0079,0.0077,0.0063,0.0116,0.0049,0.0048,0.0047,0.0054,0.0054,0.0062,0.0062,0.0062,0,0.0275,0.0299,0.032,0.0348,0.0402,0.0473,0.0531,0.0541,0.0597,0.0592,0.0611,0.0425,0.0326,0.0154,0.0154,0.0078,0.008,0.0128,0.0051,0.005,0.0048,0.0056,0.0055,0.0063,0.0063,0.0063,0.0063,0,0.0304,0.0322,0.0334,0.038,0.0433,0.0494,0.0541,0.0583,0.0633,0.0641,0.055,0.041,0.0318,0.025,0.0182,0.0101,0.012,0.0057,0.0065,0.0049,0.0057,0.0056,0.0064,0.0064,0.0064,0.0063,0,0,0.0301,0.0342,0.0351,0.0382,0.047,0.0525,0.0562,0.0597,0.0621,0.0607,0.0585,0.0404,0.0385,0.0299,0.0188,0.0131,0.0117,0.0125,0.012,0.0155,0.0045,0.0053,0.0053,0.0049,0.0048,0.0048,0.0062,0,0.0319,0.0364,0.0401,0.0476,0.0508,0.058,0.0605,0.0652,0.066,0.0636,0.0494,0.0416,0.0374,0.0331,0.0264,0.0128,0.0115,0.0125,0.0039,0.0038,0.0063,0.005,0.0046,0.0061,0.006,0.006,0.006,0,0.0348,0.037,0.0441,0.0519,0.0544,0.0603,0.069,0.0722,0.0676,0.0679,0.06,0.0515,0.0389,0.0369,0.0213,0.0232,0.0194,0.0111,0.0107,0.0116,0.0043,0.0072,0.0058,0.0058,0.0058,0.0058,0.0058,0,0.0355,0.041,0.0469,0.0501,0.0589,0.0645,0.0699,0.073,0.075,0.0703,0.0698,0.0556,0.0479,0.0385,0.0259,0.0256,0.0108,0.0053,0.0035,0.0037,0.0015,0.0016,0.0013,0.0013,0.0013,0.0013,0.0013,0,0.0375,0.0416,0.0468,0.0506,0.0584,0.0656,0.0728,0.0771,0.0776,0.0774,0.0711,0.066,0.0493,0.038,0.0284,0.0162,0.0134,0.0081,0.0035,0.0028,0.003,0.0016,0.0016,0.0013,0.0013,0.0013,0.0013,0,0.0387,0.0416,0.0479,0.0561,0.0593,0.0657,0.0762,0.0794,0.0821,0.0813,0.0808,0.0732,0.061,0.0444,0.027,0.0199,0.0064,0.0044,0.0107,0.0059,0.0053,0.0054,0.0044,0.0044,0.0045,0.0045,0.0045,0,0.0394,0.0423,0.0516,0.0561,0.0603,0.0685,0.0745,0.0814,0.0848,0.0849,0.0829,0.0738,0.0666,0.0429,0.0273,0.0104,0.0077,0.006,0.0034,0.0097,0.0053,0.0054,0.0055,0.0045,0.0046,0.0046,0.0046,0,0.04,0.044,0.0494,0.0574,0.0647,0.0721,0.08,0.083,0.0897,0.0895,0.0863,0.0762,0.0616,0.0442,0.0319,0.0183,0.0078,0.0062,0.0061,0.0036,0.0098,0.0054,0.0055,0.0046,0.0046,0.0046,0.0046,0,0.0406,0.044,0.0509,0.0588,0.067,0.0746,0.0791,0.0838,0.0881,0.0893,0.0873,0.0733,0.0663,0.0485,0.0346,0.0229,0.0207,0.0192,0.0184,0.0181,0.0197,0.0294,0.0288,0,0,0,0,0,0.0399,0.0442,0.0513,0.0605,0.0685,0.0738,0.0826,0.0863,0.0903,0.0894,0.09,0.0775,0.0598,0.0507,0.0393,0.0338,0.0175,0.0205,0.0151,0.0051,0.005,0.0042,0,0,0,0,0,0,0.0397,0.0459,0.0503,0.0598,0.0662,0.0752,0.0814,0.0849,0.0852,0.087,0.0766,0.0753,0.0558,0.0643,0.0383,0.0348,0.0307,0.0121,0.012,0.0051,0.0051,0.005,0.0042,0,0,0,0,0]}]]